Flag for U.S.A. Weather past 2 weeks in Atascadero, California, U.S.A.

Now
77 °F

Sunny.


Feels Like: 78 °F
Forecast: 56 / 85 °F
Wind: 3 mph from North

Location: Paso Robles Municipal Airport

Current Time: Sep 17, 2014 at 11:33:36 AM

Latest Report: Sep 17, 2014 at 10:53 AM


Visibility: 10 mi

Pressure: 29.80 "Hg

Humidity: 37%

Dew point: 49 °F

Location of AtascaderoLocation

Historic Weather in Atascadero — Graph

°F

Atascadero temperature yesterday

Maximum temperature yesterday: 103 °F (at 3:53 PM)
Minimum temperature yesterday: 55 °F (at 5:53 AM)
Average temperature yesterday: 76 °F

Past Weeks' High & Low Weather Summary

 TemperatureHumidityPressure
High104 °F (Sep 12, 2:53 PM)93% (Sep 4, 5:53 AM)30.00 "Hg (Sep 4, 5:53 AM)
Low48 °F (Sep 6, 6:53 AM)6% (Sep 7, 2:53 PM)29.67 "Hg (Sep 3, 5:53 PM)
Average72 °F48%29.82 "Hg
* Reported Sep 2 9:53 AM — Sep 17 9:53 AM, Atascadero, Weather by CustomWeather, © 2014

Note: Actual official high and low records may vary slightly from our data, if they occured in-between our weather recording intervals... More about our weather records

Advertising

Atascadero weather history for previous 24 hours

 ConditionsComfort  
Time TempWeatherWind HumidityBarometerVisibility
9:53 AM
Sep 17
71 °FSunny.No wind47%29.82 "Hg10 mi
8:53 AM65 °FSunny.No wind54%29.82 "Hg10 mi
7:53 AM61 °FSunny.No wind60%29.82 "Hg10 mi
6:53 AM58 °FClear.No wind70%29.81 "Hg10 mi
5:53 AM57 °FClear.No wind67%29.80 "Hg10 mi
4:53 AM60 °FClear.No wind69%29.79 "Hg10 mi
3:53 AM60 °FClear.3 mph67%29.79 "Hg10 mi
2:53 AM63 °FClear.No wind63%29.80 "Hg10 mi
1:53 AM64 °FClear.3 mph61%29.80 "Hg10 mi
12:53 AM65 °FClear.6 mph59%29.80 "Hg10 mi
11:53 PM
Sep 16
66 °FClear.7 mph54%29.81 "Hg10 mi
10:53 PM68 °FClear.15 mph53%29.81 "Hg10 mi
9:53 PM71 °FClear.16 mph47%29.80 "Hg10 mi
8:53 PM77 °FClear.10 mph33%29.79 "Hg10 mi
7:53 PM83 °FSunny.10 mph24%29.77 "Hg10 mi
6:53 PM91 °FSunny.7 mph20%29.75 "Hg10 mi
5:53 PM99 °FSunny.9 mph9%29.73 "Hg10 mi
4:53 PM101 °FSunny.13 mph9%29.74 "Hg10 mi
3:53 PM103 °FSunny.7 mph9%29.74 "Hg10 mi
2:53 PM100 °FSunny.3 mph11%29.76 "Hg10 mi
1:53 PM99 °FSunny.5 mph12%29.79 "Hg10 mi
12:53 PM93 °FSunny.5 mph21%29.82 "Hg10 mi
11:53 AM85 °FSunny.5 mph28%29.85 "Hg10 mi
Weather by CustomWeather, © 2014

See weather overviewHow to use our weather pages